Location: Bukit Nyuki
(2.5885°N, 113.7476°E)
Time: 04:42:59
(UTC+00:00)

Cosmos 2237 Rocket - Pass Details

Date: 18 May 2021
Orbit: 836 x 848 km, 71.0° (Epoch: 22 June)

Event Time Altitude Azimuth Distance (km) Brightness Sun altitude
Exits shadow 20:08:35 24° 150° (SSE) 1,693 3.8 -30.0°
Maximum altitude 20:11:05 34° 105° (ESE) 1,347 3.6 -29.4°
Drops below altitude 10° 20:16:08 10° 41° (NE) 2,451 5.4 -28.3°
Sets 20:18:46 0° 32° (NNE) 3,382 6.2 -27.7°
